Погода в Весёлом

Украина / Запорожская область     47°00′56″N   34°53′58″E
темп.,
°C
ветер,
м/с
пор.,
м/с
влажн.,
%
обл.,
%
осадки,
мм/ч
давл.,
гПа
погр.,
м
18 мая, вт
вт1800:00+14юз499176 0.1 1007237
03:00+13ююз369490 0.1 1006170
06:00+13ю369572 0.0 1007204
09:00+16ю46795 0.1 1007488
12:00+21ю895967 0.9 10061608
15:00+19юз576581 3.1 10061052
18:00+18ю697399 0.8 1005862
21:00+14юз5128299 1.6 1006454
19 мая, ср
ср1900:00+13ююз5989100 0.1 1005325
03:00+12ю51095100 0.1 1005340
06:00+11ю410941 0.0 1005301
09:00+16ююз786846 0.0 10051252
12:00+16ююз91169100 0.6 10061154
15:00+13ююз7119089 1.2 1006715
18:00+17зюз8117153 0.9 10061139
21:00+14зюз8147847 1.4 1009916
20 мая, чт
чт2000:00+13юз8148815 0.1 1010710
03:00+11юз514890 0.1 1010444
06:00+11юз410935 0.0 1011293
09:00+17юз576991 0.0 1012679
12:00+21юз565179 0.0 10121488
15:00+23ю554227 0.0 10112187
18:00+20ююв45475 0.0 1011964
21:00+14вюв4772100 0.0 1011121
21 мая, пт
пт2100:00+13в41167100 0.0 1011192
03:00+14всв497842 0.0 1010188
06:00+14всв4882100 0.0 1010207
09:00+17в467397 0.0 1010435
12:00+23юв3454100 0.0 1010938
15:00+26вюв3344100 0.0 10101199
18:00+25в234997 0.0 10091043
21:00+19св226899 0.0 100917
22 мая, сб
сб2200:00+17св3377100 0.0 100838
03:00+17св34909 0.0 100848
06:00+17с510924 0.0 1007228
09:00+22ссв677158 0.0 1008592
12:00+26св5561100 0.0 10081079
15:00+28св4451100 0.0 10071254
18:00+28с3454100 0.0 10071103
21:00+20ююв4980100 0.0 1010176